Location: Caltech
(34.1382°N, 118.1253°W)
Time: 00:32:11
(UTC-07:00)

Cosmos 1980 Rocket - Visible Passes

Search period start: 24 April 2017 00:00
Search period end: 04 May 2017 00:00
Orbit: 827 x 852 km, 71.0° (Epoch: 22 April)

Date Brightness Start Highest point End Pass type
(mag) Time Alt. Az. Time Alt. Az. Time Alt. Az.
24 Apr 5.7 04:28:21 10° NE 04:29:13 10° NE 04:30:05 10° ENE visible
24 Apr 4.5 20:56:16 10° WSW 21:00:59 27° WNW 21:05:45 10° N visible
25 Apr 4.4 20:40:27 10° WSW 20:45:17 28° WNW 20:50:10 10° N visible
26 Apr 2.6 05:37:03 10° NNW 05:42:44 71° ENE 05:48:21 10° SSE visible
26 Apr 4.4 20:24:39 10° WSW 20:29:35 30° WNW 20:34:35 10° N visible
27 Apr 2.7 05:21:24 10° NNW 05:27:04 66° ENE 05:32:40 10° SSE visible
27 Apr 4.3 20:08:52 10° SW 20:13:53 32° WNW 20:18:59 10° N visible
28 Apr 2.8 05:05:45 10° NNW 05:11:23 62° ENE 05:16:57 10° SSE visible
28 Apr 4.2 19:53:04 10° SW 19:58:12 34° WNW 20:03:23 10° N visible
29 Apr 2.9 04:50:06 10° NNW 04:55:43 57° ENE 05:01:15 10° SE visible
30 Apr 3.0 04:34:28 10° N 04:40:02 53° ENE 04:45:32 10° SE visible
01 May 3.1 04:18:50 10° N 04:24:21 50° ENE 04:29:48 10° SE visible
02 May 3.2 04:03:12 10° N 04:08:40 46° ENE 04:14:04 10° SE visible
03 May 3.3 03:47:35 10° N 03:52:59 43° ENE 03:58:20 10° SE visible
03 May 3.3 05:32:26 10° NW 05:36:35 21° W 05:40:42 10° SSW visible
